User: anonymous   Login
Location: Unspecified
(0.0000°N, 0.0000°E)
Time: 09:19:16
(UTC+00:00)
Language:

CUTE 1.7 & AOD 2 - Orbit

View from above orbital plane
View from above orbital plane
View from above satellite
View from above satellite

Ground track
Ground track

The orbit data is extracted from the following two-line orbital elements,

1 32785U 08021C   14327.47309701  .00003148  00000-0  36626-3 0  1224
2 32785 097.6784 013.4011 0014169 030.7382 081.6047 14.85914867355677
Epoch (UTC): 23 November 2014 11:21:15
Eccentricity: 0.0014169
inclination: 97.6784°
perigee height: 601 km
apogee height: 620 km
right ascension of ascending node: 13.4011°
argument of perigee: 30.7382°
revolutions per day: 14.85914867
mean anomaly at epoch: 81.6047°
orbit number at epoch: 35567

The dashed part of the orbit path shows where the satellite is in the earth's shadow,  

DLR